When you browse on this site, cookies collect data to enhance your experience and personalize the content and advertising you see.
Visit our Privacy Policy to learn more. By continuing to use the site, you agree to this use of cookies and data.
  • In United Kingdom
  • List of Countries
  • For 7 days
  • Water Temperature
  • Weather Map
  • Weather Widgets
  • user-avatar
    Login

    Hourly Weather Starozhilsk

    Today, 20 August, Tuesday

    Time Temperature Precipitation Wind Pressure Humidity
    00:00 +17°C° 0 mm 2 mps 756 mmHg 96%
    01:00 +17°C° 0 mm 2 mps 756 mmHg 96%
    02:00 +16°C° 0 mm 2 mps 756 mmHg 97%
    03:00 +16°C° 0 mm 2 mps 757 mmHg 97%
    04:00 +16°C° 0 mm 2 mps 757 mmHg 97%
    05:00 +16°C° 0 mm 2 mps 757 mmHg 97%
    06:00 +16°C° 0 mm 2 mps 757 mmHg 97%
    07:00 +18°C° 0 mm 2 mps 758 mmHg 92%
    08:00 +19°C° 0 mm 2 mps 758 mmHg 88%
    09:00 +21°C° 0 mm 2 mps 758 mmHg 83%
    10:00 +23°C° 0 mm 2 mps 758 mmHg 76%
    11:00 +24°C° 0 mm 2 mps 758 mmHg 70%
    12:00 +26°C° 0 mm 3 mps 758 mmHg 64%
    13:00 +26°C° 0 mm 3 mps 758 mmHg 63%
    14:00 +26°C° 0 mm 3 mps 758 mmHg 62%
    15:00 +26°C° 0 mm 2 mps 758 mmHg 62%
    16:00 +25°C° 0 mm 2 mps 758 mmHg 67%
    17:00 +24°C° 0 mm 2 mps 758 mmHg 73%
    18:00 +24°C° 0 mm 1 mps 758 mmHg 79%
    19:00 +22°C° 0 mm 1 mps 758 mmHg 84%
    20:00 +21°C° 0 mm 1 mps 758 mmHg 88%
    21:00 +19°C° 0 mm 1 mps 759 mmHg 93%
    22:00 +19°C° 0 mm 1 mps 759 mmHg 94%
    23:00 +18°C° 0 mm 1 mps 759 mmHg 94%

    Tomorrow, 21 August, Wednesday

    Time Temperature Precipitation Wind Pressure Humidity
    00:00 +18°C° 0 mm 1 mps 759 mmHg 95%
    01:00 +18°C° 0 mm 1 mps 759 mmHg 95%
    02:00 +16°C° 0 mm 1 mps 759 mmHg 95%
    03:00 +16°C° 0 mm 1 mps 759 mmHg 96%
    04:00 +18°C° 0 mm 1 mps 759 mmHg 95%
    05:00 +18°C° 0 mm 1 mps 759 mmHg 94%
    06:00 +18°C° 0 mm 1 mps 759 mmHg 93%
    07:00 +20°C° 0 mm 1 mps 759 mmHg 85%
    08:00 +22°C° 0 mm 1 mps 759 mmHg 78%
    09:00 +24°C° 0 mm 1 mps 760 mmHg 70%
    10:00 +25°C° 0 mm 1 mps 760 mmHg 66%
    11:00 +26°C° 0 mm 1 mps 759 mmHg 61%
    12:00 +27°C° 0 mm 1 mps 759 mmHg 57%
    13:00 +27°C° 0 mm 1 mps 759 mmHg 56%
    14:00 +28°C° 0 mm 1 mps 759 mmHg 55%
    15:00 +28°C° 0 mm 1 mps 759 mmHg 55%
    16:00 +27°C° 0 mm 1 mps 759 mmHg 62%
    17:00 +26°C° 0 mm 1 mps 759 mmHg 68%
    18:00 +24°C° 0 mm 1 mps 759 mmHg 75%
    19:00 +21°C° 0 mm 0 mps 759 mmHg 79%
    20:00 +20°C° 0 mm 0 mps 759 mmHg 83%
    21:00 +18°C° 0 mm 0 mps 759 mmHg 87%
    22:00 +20°C° 0 mm 1 mps 759 mmHg 89%
    23:00 +20°C° 0 mm 1 mps 759 mmHg 90%

    Day after tomorrow, 22 August, Thursday

    Time Temperature Precipitation Wind Pressure Humidity
    00:00 +19°C° 0 mm 1 mps 759 mmHg 91%
    01:00 +19°C° 0 mm 1 mps 759 mmHg 92%
    02:00 +19°C° 0 mm 1 mps 759 mmHg 94%
    03:00 +18°C° 0 mm 1 mps 759 mmHg 95%
    04:00 +19°C° 0 mm 1 mps 759 mmHg 94%
    05:00 +19°C° 0 mm 1 mps 759 mmHg 93%
    06:00 +20°C° 0 mm 1 mps 759 mmHg 92%
    07:00 +21°C° 0 mm 1 mps 759 mmHg 87%
    08:00 +23°C° 0 mm 1 mps 759 mmHg 82%
    09:00 +25°C° 0 mm 1 mps 758 mmHg 77%
    10:00 +26°C° 0.1 mm 2 mps 758 mmHg 73%
    11:00 +27°C° 0.1 mm 2 mps 758 mmHg 70%
    12:00 +28°C° 0.1 mm 2 mps 758 mmHg 66%
    13:00 +28°C° 0.2 mm 3 mps 758 mmHg 66%
    14:00 +28°C° 0.2 mm 3 mps 758 mmHg 66%
    15:00 +28°C° 0.2 mm 3 mps 757 mmHg 66%
    16:00 +27°C° 0.1 mm 3 mps 757 mmHg 71%
    17:00 +26°C° 0.1 mm 3 mps 757 mmHg 76%
    18:00 +25°C° 0.1 mm 2 mps 756 mmHg 81%
    19:00 +24°C° 0.1 mm 2 mps 756 mmHg 86%
    20:00 +23°C° 0.1 mm 2 mps 756 mmHg 90%
    21:00 +21°C° 0.1 mm 2 mps 756 mmHg 94%
    22:00 +20°C° 0.4 mm 2 mps 756 mmHg 95%
    23:00 +20°C° 0.4 mm 3 mps 757 mmHg 96%

    23 August, Friday

    Time Temperature Precipitation Wind Pressure Humidity
    00:00 +19°C° 0.4 mm 3 mps 757 mmHg 97%
    01:00 +18°C° 0.4 mm 3 mps 757 mmHg 96%
    02:00 +17°C° 0.4 mm 3 mps 758 mmHg 95%
    03:00 +16°C° 0.4 mm 3 mps 758 mmHg 94%
    04:00 +14°C° 0 mm 3 mps 758 mmHg 94%
    05:00 +14°C° 0 mm 3 mps 758 mmHg 94%
    06:00 +13°C° 0 mm 3 mps 759 mmHg 94%
    07:00 +14°C° 0 mm 3 mps 759 mmHg 88%
    08:00 +17°C° 0 mm 2 mps 759 mmHg 83%
    09:00 +18°C° 0 mm 2 mps 760 mmHg 77%
    10:00 +19°C° 0 mm 2 mps 760 mmHg 69%
    11:00 +21°C° 0 mm 2 mps 760 mmHg 60%
    12:00 +23°C° 0 mm 2 mps 760 mmHg 52%
    13:00 +23°C° 0 mm 2 mps 760 mmHg 51%
    14:00 +24°C° 0 mm 2 mps 760 mmHg 51%
    15:00 +24°C° 0 mm 2 mps 760 mmHg 50%
    16:00 +23°C° 0 mm 2 mps 760 mmHg 57%
    17:00 +22°C° 0 mm 1 mps 760 mmHg 64%
    18:00 +21°C° 0 mm 1 mps 760 mmHg 71%
    19:00 +19°C° 0 mm 1 mps 760 mmHg 74%
    20:00 +18°C° 0 mm 1 mps 760 mmHg 78%
    21:00 +15°C° 0 mm 1 mps 760 mmHg 82%
    22:00 +15°C° 0 mm 1 mps 760 mmHg 84%
    23:00 +14°C° 0 mm 1 mps 760 mmHg 85%

    24 August, Saturday

    Time Temperature Precipitation Wind Pressure Humidity
    00:00 +14°C° 0 mm 1 mps 760 mmHg 87%
    01:00 +13°C° 0 mm 1 mps 760 mmHg 88%
    02:00 +13°C° 0 mm 1 mps 759 mmHg 90%
    03:00 +13°C° 0 mm 1 mps 759 mmHg 91%
    04:00 +13°C° 0 mm 1 mps 759 mmHg 90%
    05:00 +13°C° 0 mm 1 mps 760 mmHg 89%
    06:00 +13°C° 0 mm 1 mps 760 mmHg 89%
    07:00 +15°C° 0 mm 1 mps 760 mmHg 81%
    08:00 +17°C° 0 mm 2 mps 760 mmHg 74%
    09:00 +19°C° 0 mm 2 mps 760 mmHg 67%
    10:00 +20°C° 0 mm 2 mps 760 mmHg 63%
    11:00 +21°C° 0 mm 2 mps 759 mmHg 58%
    12:00 +22°C° 0 mm 3 mps 759 mmHg 53%
    13:00 +22°C° 0 mm 3 mps 759 mmHg 53%
    14:00 +22°C° 0 mm 3 mps 759 mmHg 52%
    15:00 +22°C° 0 mm 3 mps 758 mmHg 51%
    16:00 +21°C° 0 mm 2 mps 758 mmHg 58%
    17:00 +20°C° 0 mm 2 mps 758 mmHg 65%
    18:00 +20°C° 0 mm 1 mps 758 mmHg 72%
    19:00 +19°C° 0 mm 1 mps 758 mmHg 76%
    20:00 +18°C° 0 mm 1 mps 758 mmHg 80%
    21:00 +15°C° 0 mm 1 mps 757 mmHg 84%
    22:00 +15°C° 0 mm 2 mps 757 mmHg 84%
    23:00 +14°C° 0 mm 2 mps 757 mmHg 84%

    25 August, Sunday

    Time Temperature Precipitation Wind Pressure Humidity
    00:00 +14°C° 0 mm 2 mps 757 mmHg 84%
    01:00 +14°C° 0 mm 2 mps 756 mmHg 84%
    02:00 +13°C° 0 mm 3 mps 756 mmHg 85%
    03:00 +13°C° 0 mm 3 mps 755 mmHg 85%
    04:00 +13°C° 0 mm 3 mps 755 mmHg 84%
    05:00 +14°C° 0 mm 3 mps 755 mmHg 83%
    06:00 +14°C° 0 mm 4 mps 754 mmHg 81%
    07:00 +17°C° 0 mm 4 mps 754 mmHg 78%
    08:00 +18°C° 0 mm 4 mps 754 mmHg 74%
    09:00 +20°C° 0 mm 4 mps 754 mmHg 71%
    10:00 +19°C° 0.1 mm 4 mps 754 mmHg 75%
    11:00 +18°C° 0.1 mm 4 mps 753 mmHg 79%
    12:00 +17°C° 0.1 mm 3 mps 753 mmHg 82%
    13:00 +17°C° 0.2 mm 4 mps 753 mmHg 82%
    14:00 +17°C° 0.2 mm 4 mps 753 mmHg 81%
    15:00 +17°C° 0.2 mm 4 mps 753 mmHg 81%
    16:00 +17°C° 0.3 mm 4 mps 753 mmHg 82%
    17:00 +17°C° 0.3 mm 3 mps 753 mmHg 84%
    18:00 +16°C° 0.3 mm 3 mps 753 mmHg 85%
    19:00 +14°C° 0 mm 3 mps 753 mmHg 87%
    20:00 +13°C° 0 mm 3 mps 753 mmHg 89%
    21:00 +12°C° 0 mm 3 mps 754 mmHg 91%
    22:00 +11°C° 0 mm 3 mps 754 mmHg 91%
    23:00 +11°C° 0 mm 3 mps 754 mmHg 91%
    Show more